This is the latest recevied weather packets stored in our database for station/object KB9PVH-8. If no packets are shown the sender has not sent any weather packets the latest 10 day(s).
| Time | Temp. | Humidity | Pressure | Rain* | Wind** | Luminosity | Snow |
|---|---|---|---|---|---|---|---|
| 1788376909 | 30° C | - | - | 0 mm | 14.31 m/s, ° | - | - |
| 1788376871 | 30° C | - | - | 0 mm | 14.31 m/s, ° | - | - |
| 1788376824 | 30.56° C | - | - | 0 mm | 9.39 m/s, ° | - | - |
| 1788376005 | 30.56° C | - | - | 0 mm | 9.39 m/s, ° | - | - |
| 1788375225 | 30° C | - | - | 0 mm | 26.82 m/s, ° | - | - |
| 1788375161 | 30° C | - | - | 0 mm | 26.82 m/s, ° | - | - |
| 1788370121 | 27.78° C | - | - | 0 mm | 6.26 m/s, ° | - | - |
| 1788368443 | 28.33° C | - | - | 0 mm | 17.43 m/s, ° | - | - |
| 1788367601 | 27.78° C | - | - | 0 mm | 12.07 m/s, ° | - | - |
| 1788366761 | 27.78° C | - | - | 0 mm | 28.16 m/s, ° | - | - |
| 1788363404 | 26.67° C | - | - | 0 mm | 24.59 m/s, ° | - | - |
| 1788363373 | 26.67° C | - | - | 0 mm | 24.59 m/s, ° | - | - |
| 1788362505 | 25° C | - | - | 0 mm | 26.38 m/s, ° | - | - |
| 1788360821 | 24.44° C | - | - | 0 mm | 6.71 m/s, ° | - | - |
| 1788359981 | 24.44° C | - | - | 0 mm | 9.39 m/s, ° | - | - |
| 1788359141 | 23.89° C | - | - | 0 mm | 16.54 m/s, ° | - | - |
| 1788358415 | 23.33° C | - | - | 0 mm | 12.52 m/s, ° | - | - |
| 1788358301 | 23.33° C | - | - | 0 mm | 12.52 m/s, ° | - | - |
| 1788357431 | 22.22° C | - | - | 0 mm | 4.92 m/s, ° | - | - |
| 1788355151 | 22.22° C | - | - | 0 mm | 4.02 m/s, ° | - | - |
| 1788354881 | 22.22° C | - | - | 0 mm | 4.02 m/s, ° | - | - |
| 1788354041 | 22.22° C | - | - | 0 mm | 5.36 m/s, ° | - | - |
| 1788353201 | 21.11° C | - | - | 0 mm | 4.02 m/s, ° | - | - |
| 1788352361 | 21.11° C | - | - | 0 mm | 1.79 m/s, ° | - | - |
| 1788347292 | 22.22° C | - | - | 0 mm | 0 m/s | - | - |
* Rain latest hour (hover to see other rain measurements)
** Current wind speed in m/s (hover to see current wind gust speed)